Miscellaneous Local Product
Issued by NWS North Platte, NE

Home | Current Version | Previous Version | Text Only | Print | Product List | Glossary On
Versions: 1 2 3 4 5 6 7 8 9 10 11 12 13 14 15 16 17 18 19 20 21 22 23 24 25 26 27 28 29 30 31 32 33 34 35 36 37 38 39 40 41 42 43 44 45 46 47 48 49 50
000
AXUS43 KLBF 212210
MISLBF


WESTERN AND NORTH CENTRAL NEBRASKA HOURLY WEATHER ROUNDUP
NATIONAL WEATHER SERVICE NORTH PLATTE NE
400 PM CST SUN DEC 21 2014

***STATIONS NOT REPORTING VARIABLES SUCH AS SKY/WEATHER OR
PRESSURE ARE PROVIDED BY THE NEBRASKA DEPARTMENT OF
ROADS...RAWS...AND APRS NETWORKS...AND ARE NOT UNDER
NATIONAL WEATHER SERVICE QUALITY CONTROL***

...OBSERVATIONS IN AND NEAR THE EASTERN PANHANDLE OF NEBRASKA...

CITY           SKY/WX    TMP DP  RH WIND       PRES   REMARKS
PINE RIDGE     PTSUNNY   48  29  47 NW17      29.39R
CHADRON        CLOUDY    44  31  60 W10       29.42R
ALLIANCE       CLOUDY    41  31  67 SW16      29.43S
SIDNEY         CLOUDY    44  29  55 W5        29.50F
WHITECLAY        N/A     46  28  49 W13         N/A
CRESCENT LAKE    N/A     45  29  54 SW13G20     N/A
LISCO            N/A     47  29  48 CALM        N/A
BIG SPRINGS      N/A     36  32  84 SW6         N/A  WCI  31
$$

...OBSERVATIONS IN NORTH CENTRAL NEBRASKA...

CITY           SKY/WX    TMP DP  RH WIND       PRES   REMARKS
VALENTINE      CLOUDY    41  32  70 S12       29.42F
THEDFORD       LGT RAIN  41  32  70 S9        29.48F
AINSWORTH      CLOUDY    38  31  76 S15       29.44F WCI  30
O`NEILL        CLOUDY    36  35  95 S16       29.54S FOG     WCI  26
BROKEN BOW     CLOUDY    37  33  85 S10       29.56S WCI  30
BROWNLEE         N/A     43  29  59 S16         N/A
SPRINGVIEW       N/A     41  33  72 S10G17      N/A
BREWSTER         N/A     40  34  77 S12         N/A  WCI  34
ROSE             N/A     40  37  87 E12         N/A  WCI  33
SARGENT          N/A     36  34  92 S3          N/A
COMSTOCK         N/A     39  39  99 S15         N/A  WCI  30
CHAMBERS         N/A     35  32  90 S12G20      N/A  WCI  27
EWING            N/A     36  35  96 CALM        N/A
$$

...OBSERVATIONS IN SOUTHWEST NEBRASKA AND FAR NORTHEAST COLORADO...

CITY           SKY/WX    TMP DP  RH WIND       PRES   REMARKS
WRAY           CLOUDY    44  32  61 SW6       29.51F
HOLYOKE        FAIR      41  34  75 SW9       29.51F
IMPERIAL       CLOUDY    45  31  58 S8        29.51F
OGALLALA       CLOUDY    36  31  82 CALM      29.51R
NORTH PLATTE   CLOUDY    42  31  64 SE7       29.51F
MCCOOK         CLOUDY    38  32  79 S9        29.57S WCI  31
LEXINGTON      CLOUDY    39  37  91 SE9       29.57F FOG     WCI  33
PAXTON           N/A     38  33  82 CALM        N/A
BRADY            N/A     38  33  81 CALM        N/A
GOTHENBURG       N/A     37  33  85 SE6         N/A  WCI  32
CALLAWAY         N/A     35  33  92 S12         N/A  WCI  27
$$

...NORTH PLATTE AREA...

CITY           SKY/WX    TMP DP  RH WIND       PRES   REMARKS
AIRPORT        CLOUDY    42  31  64 SE7       29.51F
$$

...SOME WEATHER OBSERVATIONS FROM AROUND THE REGION...

CITY           SKY/WX    TMP DP  RH WIND       PRES   REMARKS
DENVER         CLOUDY    50  24  36 W12       29.54S
LARAMIE        CLOUDY    37  28  70 W22       29.55R WCI  26
CHEYENNE       MOSUNNY   45  26  47 W21G35    29.50F
SCOTTSBLUFF    CLOUDY    43  33  68 W9        29.45S
RAPID CITY     CLOUDY    45  26  47 NW10      29.39R
PIERRE         PTCLDY    34  29  82 E7        29.41S WCI  28
WINNER         FAIR      43  30  60 S20       29.41F
SIOUX FALLS    CLOUDY    38  35  89 S22       29.58F WCI  27
OMAHA          CLOUDY    42  38  85 S15       29.74F
GRAND ISLAND   CLOUDY    41  38  89 S15       29.63F
KANSAS CITY    CLOUDY    45  39  79 S16       29.83F
WICHITA        DRIZZLE   46  43  89 S16       29.74F FOG
HAYS           CLOUDY    45  34  65 S17       29.64F
LIBERAL        SUNNY     54  37  54 S10       29.62S
GOODLAND       CLOUDY    45  34  65 S10       29.54F
$$



USA.gov is the U.S. government's official web portal to all federal, state and local government web resources and services.